Weather in Lychevo

Russia / Pskov Oblast     56°19′43″N   30°35′09″E
temp.,
°C
wind,
m/s
gust,
m/s
humid.,
%
clouds,
%
prec.,
mm/h
press.,
hPa
HPBL,
m
13 may, thu
thu1300:00+12ne31198100 1.7 1014489
03:00+13e7139173 2.2 1012987
06:00+9se6128873 0.1 10141126
09:00+11ese6137535 0.1 10141234
12:00+15ese7116345 0.1 10131567
15:00+16se6105630 0.4 10111838
18:00+13ese4781100 0.9 1010651
21:00+10ese379236 1.1 1010181
14 may, fri
fri1400:00+7se38965 0.0 1011177
03:00+7se3109683 0.0 1010230
06:00+9se51391100 0.0 1010515
09:00+13se6127832 0.1 1009756
12:00+14sse6127464 0.0 10101032
15:00+16sse6107187 0.2 10091244
18:00+17se498137 1.4 1008880
21:00+13ese35935 2.3 100775
15 may, sat
sat1500:00+11se2496100 0.0 100670
03:00+11se2297100 0.7 100527
06:00+12se2297100 0.9 100555
09:00+15sse128534 1.0 1004412
12:00+18sse2274100 1.8 1004850
15:00+18ssw458069 6.3 1004853
18:00+15wsw4889100 6.1 1004361
21:00+12wsw249678 8.1 1006104
16 may, sun
sun1600:00+11w2296100 0.0 100621
03:00+11wsw2298100 0.9 100766
06:00+12wnw3697100 0.9 1009366
09:00+13w348055 1.0 1010504
12:00+16w346091 0.0 10111137
15:00+19wsw245218 0.0 10111699
18:00+19n0163100 0.0 101163
21:00+15ese227440 0.0 101226
17 may, mon
mon1700:00+11ese2289100 0.0 101226
03:00+11se369044 0.0 1013113
06:00+11ese3890100 0.0 1012197
09:00+17ese487261 0.0 1012455
12:00+19e6964100 0.0 10101008
15:00+21e61262100 0.0 10071268
18:00+22ese71468100 0.0 10051367
21:00+19ese61587100 1.9 1004701